Tracking 25612 objects as of 19-May-2022
HD Live streaming from Space Station
objects crossing your sky now

LEMUR 2 GREGROBINSON

Track LEMUR 2 GREGROBINSON now!
10-day predictions
LEMUR 2 GREGROBINSON is classified as:


NORAD ID: 44411
Int'l Code: 2019-038AB
Perigee: 505.8 km
Apogee: 531.9 km
Inclination: 97.6 °
Period: 94.9 minutes
Semi major axis: 6889 km
RCS: Unknown
Launch date: July 5, 2019
Source: United States (US)
Launch site: ()
aabbcc
Your satellite tracking list
Your tracking list is empty




NASA's NSSDC Master Catalog

Two Line Element Set (TLE):
1 44411U 19038AB  22138.56452207  .00015792  00000-0  77432-3 0  9992
2 44411  97.6256 108.3878 0018942 230.2341 129.7225 15.18053922158216
Source of the keplerian elements: AFSPC